Location: Hauppauge
(40.8260°N, 73.2030°W)
Time: 21:35:25
(UTC-05:00)

Daily predictions for brighter satellites

Satellite Brightness Start Highest point End
(mag) Time Altitude Azimuth Time Altitude Azimuth Time Altitude Azimuth
Meteor 1-14 Rocket 4.4 17:52:55 10° S 17:58:51 80° E 18:04:53 10° NNE
YAOGAN 1 4.0 17:55:58 10° S 18:00:06 45° W 18:04:16 10° NNW
Cosmos 407 Rocket 3.9 17:55:30 10° S 18:00:26 44° ESE 18:05:26 10° NNE
BREEZE-M DEB (TANK) 3.6 17:58:37 10° WNW 18:00:54 42° N 18:08:23 10° ENE
ERBS 4.2 17:58:08 10° WNW 18:01:21 34° SW 18:04:30 10° SSE
DELTA 2 R/B (1) 3.7 17:55:59 10° W 18:01:36 80° S 18:07:13 10° E
Meteor 1-20 Rocket 4.5 17:56:37 10° SSE 18:02:14 52° E 18:07:53 10° NNE
Resurs 01 Rocket 3.1 17:59:54 10° ESE 18:02:47 17° ENE 18:05:41 10° NNE
Cosmos 1238 Rocket 4.2 18:02:17 10° ENE 18:03:03 11° ENE 18:03:50 10° E
Cosmos 1782 Rocket 4.0 18:01:23 10° SSW 18:05:48 71° W 18:10:16 10° N
Cosmos 1340 4.0 18:03:07 10° NNE 18:05:55 19° ENE 18:08:42 10° ESE
Cosmos 2322 Rocket 2.2 18:01:40 10° NNW 18:07:16 64° ENE 18:12:49 10° SE
Cosmos 44 Rocket 4.1 18:09:48 10° NW 18:14:26 54° WSW 18:18:59 10° SSE
Meteor 1-28 Rocket 3.3 18:11:22 10° N 18:15:12 86° W 18:19:00 10° SSW
BREEZE-M DEB (TANK) 4.1 18:15:52 10° NW 18:18:24 28° NNE 18:22:56 12° E
COSMO-SKYMED 1 3.1 18:15:05 10° N 18:19:24 63° WNW 18:23:40 10° SSW
Tiangong 2 1.0 18:16:44 10° WNW 18:19:49 85° S 18:22:34 12° ESE
Cosmos 1709 Rocket 4.2 18:16:43 10° SSE 18:22:40 48° E 18:28:33 10° NNE
Cosmos 1536 4.4 18:20:31 10° ESE 18:22:52 15° E 18:25:14 10° NE
Okean 2 Rocket 3.8 18:19:56 10° SSW 18:24:20 60° W 18:28:44 10° N
FENGYUN 3A 4.1 18:19:43 10° SE 18:24:44 40° ENE 18:29:46 10° N
Cosmos 1140 Rocket 4.2 18:21:26 10° SSE 18:25:51 30° E 18:30:17 10° NE
Cosmos 1190 Rocket 4.0 18:20:45 10° SSW 18:25:56 88° ESE 18:31:11 10° NNE
BREEZE-M DEB (TANK) 4.0 18:24:20 10° SSW 18:28:10 22° SSE 18:29:40 15° ESE
CZ-3C R/B 4.1 18:26:04 10° SW 18:28:26 11° SSW 18:30:14 10° S
Okean 1 3.3 18:24:37 10° N 18:28:40 64° E 18:32:42 10° SSE
Cosmos 1461 2.7 18:26:52 10° NNW 18:30:52 75° NE 18:34:59 10° SE
Cosmos 2292 Rocket 4.2 18:26:54 10° S 18:31:42 64° E 18:38:12 10° NNE
COSMOS 2428 4.0 18:28:09 10° N 18:32:22 21° NE 18:34:54 16° E
deb Kosmos-1763 4.5 18:28:52 10° SSW 18:32:39 68° WNW 18:36:26 10° NNE
Meteor 2-4 Rocket 4.5 18:29:08 10° NNE 18:33:54 28° ENE 18:38:32 10° SE
CENTAUR R/B 4.2 18:26:29 10° NW 18:34:04 49° WSW 18:42:00 10° S
Cosmos 44 3.9 18:30:15 10° NW 18:34:33 51° WSW 18:38:42 10° SSE
Meteor 1-25 Rocket 4.5 18:29:08 10° SSW 18:34:43 74° W 18:40:24 10° N
Spot 2 Rocket 3.9 18:31:26 10° SE 18:36:05 39° ENE 18:40:47 10° N
H-2A R/B 3.5 18:35:27 10° SE 18:38:41 29° ENE 18:41:58 10° N
Cosmos 2151 Rocket 3.7 18:38:27 10° S 18:42:57 82° W 18:47:30 10° N
Helios 1A 4.0 18:44:51 22° E 18:45:52 24° ENE 18:49:16 10° NNE
Cosmos 1812 3.9 18:42:21 10° NNW 18:46:04 45° W 18:49:45 10° SSW
Meteor 1-11 Rocket 3.9 18:43:25 10° S 18:48:59 53° E 18:54:42 10° NNE
Okean 1 Rocket 3.4 18:45:33 10° SSE 18:49:46 42° E 18:54:00 10° NNE
Envisat 4.4 18:52:53 19° ENE 18:52:53 19° ENE 18:56:02 10° NNE
GEOS 3 Rocket 3.6 18:48:23 10° NE 18:53:39 82° SE 18:58:56 10° SSW
Cosmos 1954 Rocket 3.9 18:48:34 10° S 18:53:43 74° ESE 18:58:56 10° NNE
Cosmos 2219 3.9 18:51:20 10° SSE 18:56:16 30° ESE 18:58:55 21° ENE
HJ-1C 3.2 18:53:14 10° SSE 18:56:37 83° ENE 19:00:00 10° N
Cosmos 2360 Rocket 2.1 18:53:51 10° NNW 18:59:30 66° ENE 19:05:07 10° SSE
Cosmos 2219 Rocket 3.5 18:58:13 10° N 19:02:15 20° NE 19:02:23 20° NE
Helios 1B rocket 3.2 19:07:49 32° SE 19:07:49 32° SE 19:10:43 10° SSE
Okean 1-7 Rocket 3.8 19:03:58 10° N 19:08:23 49° ENE 19:10:37 26° SE
Cosmos 1602 3.9 19:07:48 10° SSW 19:11:39 72° W 19:15:33 10° N
Cosmos 1633 3.0 19:08:29 10° SSW 19:12:08 63° W 19:15:49 10° N
Cosmos 1025 Rocket 3.3 19:14:39 10° N 19:18:32 46° ENE 19:18:32 46° ENE
ALOS 2.8 19:14:50 10° S 19:19:25 58° W 19:24:03 10° NNW
NOSS 8 (F) 4.3 19:18:09 10° SSW 19:21:40 83° ESE 19:21:43 83° E
Cosmos 1833 4.4 19:16:02 10° SSW 19:21:44 71° WNW 19:27:24 10° NNE
Spot 1 3.8 19:21:15 57° ESE 19:21:47 64° ENE 19:25:51 10° N
Cosmos 2333 Rocket 3.4 19:23:07 10° N 19:27:00 25° NE 19:27:00 25° NE
SL-16 R/B 4.4 19:28:26 10° NW 19:33:01 26° WSW 19:37:34 10° SSW
Intercosmos 24 4.1 19:29:08 10° S 19:33:06 74° E 19:38:40 10° N
Cosmos 1741 Rocket 3.8 19:28:49 10° SSW 19:34:01 79° ESE 19:37:55 18° NNE
SL-08 ROCKET BODY 4.3 19:28:30 10° S 19:34:39 86° E 19:40:53 10° N
Resurs 01 Rocket 2.7 19:34:42 10° S 19:38:54 44° W 19:43:08 10° NNW
Cosmos 1610 Rocket 4.4 19:34:49 10° S 19:40:56 59° E 19:46:59 10° NNE
Gbstr 26 Del rocket 3.5 19:41:12 10° SW 19:43:56 46° WSW 19:43:56 46° WSW
Cosmos 1570 Rocket 3.9 19:42:24 10° NNW 19:47:39 83° WSW 19:48:43 57° S
Cosmos 2327 Rocket 4.4 19:41:33 10° S 19:47:44 90° W 19:54:05 10° N
DELTA 2 R/B (1) 4.0 19:42:27 10° W 19:47:53 52° SSW 19:48:38 48° S
Meteor 2-9 4.5 19:42:40 10° S 19:48:09 79° E 19:53:48 10° NNE
Meteor 1-5 Rocket 4.2 19:43:21 10° S 19:49:19 88° E 19:55:17 10° N
Tiangong 2 4.1 19:53:42 10° W 19:54:34 15° WSW 19:54:34 15° WSW
Cosmos 1536 4.3 19:55:19 10° SW 19:59:00 35° WNW 20:02:42 10° N
Cosmos 2074 Rocket 4.5 20:00:52 10° SSW 20:07:00 60° W 20:13:14 10° N
Cosmos 2184 Rocket 4.4 20:01:28 10° SSW 20:07:43 62° W 20:13:55 10° N
COSMOS 2428 3.0 20:11:29 10° NNW 20:16:58 64° WSW 20:16:58 64° WSW
Cosmos 2237 Rocket 3.7 20:21:18 10° NNW 20:23:53 26° N 20:23:53 26° N
Envisat 4.4 20:33:05 34° NW 20:33:05 34° NW 20:36:08 10° NNW
USA 229 DEB 3.8 20:25:33 10° NW 20:32:15 77° WNW 20:32:15 77° WNW
USA 229 3.8 20:25:39 10° NW 20:32:20 77° WNW 20:32:20 77° WNW
Cosmos 2285 Rocket 4.4 20:28:29 10° NNW 20:34:37 60° W 20:34:37 60° W
Cosmos 2219 4.4 20:34:54 10° SW 20:40:15 39° WNW 20:41:02 37° NW
Cosmos 2219 Rocket 3.6 20:41:09 10° NNW 20:44:08 32° NW 20:44:08 32° NW
Cosmos 2333 Rocket 4.2 21:06:51 10° NW 21:09:02 23° NW 21:09:02 23° NW
